Flag for U.S.A. Weather past 2 weeks in Elizabeth, New Jersey, U.S.A.

Now
83 °F

Scattered clouds.


Feels Like: 85 °F
Forecast: 75 / 88 °F
Wind: 12 mph from Northeast

Location: Newark International Airport

Current Time: Sep 1, 2015 at 11:18:02 AM

Latest Report: Sep 1, 2015 at 9:51 AM


Visibility: 10 mi

Pressure: 30.05 "Hg

Humidity: 57%

Dew point: 66 °F

Location of ElizabethLocation

Historic Weather in Elizabeth — Graph

°F

Elizabeth temperature yesterday

Maximum temperature yesterday: 93 °F (at 4:51 PM)
Minimum temperature yesterday: 75 °F (at 6:51 AM)
Average temperature yesterday: 84 °F

Past Weeks' High & Low Weather Summary

 TemperatureHumidityPressure
High97 °F (Aug 17, 4:51 PM)94% (Aug 21, 3:02 AM)30.22 "Hg (Aug 21, 3:02 AM)
Low63 °F (Aug 28, 5:51 AM)27% (Aug 17, 4:51 PM)29.80 "Hg (Aug 25, 3:51 PM)
Average79 °F59%30.01 "Hg
* Reported Aug 17 9:51 AM — Sep 1 9:51 AM, Elizabeth, Weather by CustomWeather, © 2015

Note: Actual official high and low records may vary slightly from our data, if they occured in-between our weather recording intervals... More about our weather records

Advertising

Elizabeth weather history for previous 24 hours

 ConditionsComfort  
Time TempWeatherWind HumidityBarometerVisibility
9:51 AM
Tue, Sep 1
83 °FScattered clouds.12 mph57%30.05 "Hg10 mi
8:51 AM79 °FPassing clouds.10 mph65%30.04 "Hg10 mi
7:51 AM80 °FPassing clouds.8 mph62%30.03 "Hg10 mi
6:51 AM77 °FPassing clouds.5 mph69%30.02 "Hg10 mi
5:51 AM75 °FPassing clouds.5 mph76%30.01 "Hg10 mi
4:51 AM77 °FPassing clouds.3 mph77%30.00 "Hg10 mi
3:51 AM77 °FPassing clouds.3 mph79%30.00 "Hg10 mi
2:51 AM78 °FPartly cloudy.5 mph76%30.00 "Hg10 mi
1:51 AM79 °FPassing clouds.9 mph74%30.00 "Hg10 mi
12:51 AM81 °FPassing clouds.7 mph65%30.00 "Hg10 mi
10:51 PM
Mon, Aug 31
83 °FPassing clouds.13 mph61%29.98 "Hg10 mi
9:51 PM84 °FPartly cloudy.13 mph55%29.98 "Hg10 mi
8:51 PM87 °FPassing clouds.9 mph48%29.96 "Hg10 mi
7:51 PM88 °FPartly sunny.8 mph45%29.95 "Hg10 mi
6:51 PM90 °FPartly sunny.12 mph41%29.94 "Hg10 mi
5:51 PM92 °FBroken clouds.14 mph38%29.95 "Hg10 mi
4:51 PM93 °FBroken clouds.15 mph37%29.94 "Hg10 mi
3:51 PM92 °FBroken clouds.13 mph38%29.95 "Hg10 mi
2:51 PM92 °FBroken clouds.14 mph38%29.96 "Hg10 mi
1:51 PM92 °FBroken clouds.10 mph41%29.99 "Hg10 mi
12:51 PM87 °FMostly cloudy.8 mph51%30.02 "Hg10 mi
11:51 AM85 °FMore clouds than sun.5 mph55%30.03 "Hg10 mi
Weather by CustomWeather, © 2015

See weather overviewHow to use our weather pages